Weather History for Edwards AFB, CA

Change the Weather History Date:

Wednesday, March 13, 2013

  Actual Average Record
Temperature  
Mean Temperature 60 °F -  
Max Temperature 83 °F 67 °F 89 °F (2007)
Min Temperature 37 °F 37 °F 24 °F (1999)
Degree Days  
Heating Degree Days 5    
Growing Degree Days 10 (Base 50)    
Moisture  
Dew Point 23 °F    
Average Humidity 29    
Maximum Humidity 52    
Minimum Humidity 11    
Precipitation  
Precipitation 0.00 in - - ()
Sea Level Pressure  
Sea Level Pressure 30.14 in    
Wind  
Wind Speed 3 mph (NNE)    
Max Wind Speed 12 mph    
Max Gust Speed -    
Visibility 10 miles    
Events      
Averages and records for this station are not official NWS values.
T = Trace of Precipitation, MM = Missing Value Source: NWS Daily Summary

Daily Weather History Graph

Daily Weather History Graph

Search for Another Location

Airport:

Trip Planner

Search our weather history database for the weather conditions in past years. The results will help you decide how hot, cold, wet, or windy it might be!

Date:

Astronomy

Mar. 13, 2013 Rise Set
Actual Time 7:04 AM PDT 6:57 PM PDT
Civil Twilight 6:39 AM PDT 7:23 PM PDT
Nautical Twilight 6:09 AM PDT 7:52 PM PDT
Astronomical Twilight 5:40 AM PDT 8:21 PM PDT
Moon 7:52 AM PDT (3/13) 9:11 PM PDT (3/13)
Length of Visible Light 12h 43m
Length of Day
11h 53m
Waxing Crescent, 4% of the Moon is Illuminated
Mar 13
Waxing Crescent
Mar 19
First Quarter
Mar 27
Full
Apr 2
Last Quarter
Apr 10
New

Hourly Weather History & Observations

Time (PDT) Temp. Windchill Dew Point Humidity Pressure Visibility Wind Dir Wind Speed Gust Speed Precip Events Conditions
12:58 AM 49.6 °F - 22.3 °F 34% 30.14 in 10.0 mi NW 2.3 mph - N/A   Clear
1:58 AM 43.3 °F - 22.1 °F 43% 30.14 in 10.0 mi SSW 2.3 mph - N/A   Clear
2:58 AM 44.2 °F 42.7 °F 23.2 °F 43% 30.13 in 10.0 mi NW 3.5 mph - N/A   Clear
3:58 AM 39.7 °F - 21.7 °F 49% 30.14 in 10.0 mi Calm Calm - N/A   Clear
4:58 AM 40.8 °F - 22.8 °F 49% 30.14 in 10.0 mi SSE 2.3 mph - N/A   Clear
5:58 AM 37.6 °F 35.1 °F 18.9 °F 47% 30.16 in 30.0 mi SSW 3.5 mph - N/A   Clear
6:55 AM 39.7 °F 36.5 °F 22.8 °F 51% 30.17 in 90.0 mi West 4.6 mph - N/A   Clear
6:56 AM 39.2 °F 37.0 °F 23.0 °F 52% 30.19 in 10.0 mi West 3.5 mph - N/A   Clear
7:55 AM 39.9 °F - 19.0 °F 43% 30.20 in 90.0 mi Calm Calm - N/A   Clear
8:57 AM 46.0 °F - 20.3 °F 36% 30.22 in 90.0 mi Calm Calm - N/A   Clear
9:55 AM 54.5 °F - 25.0 °F 32% 30.22 in 90.0 mi Calm Calm - N/A   Clear
10:55 AM 62.2 °F - 25.5 °F 25% 30.21 in 90.0 mi Calm Calm - N/A   Clear
11:55 AM 68.9 °F - 22.5 °F 17% 30.20 in 90.0 mi North 3.5 mph - N/A   Clear
12:55 PM 73.6 °F - 23.7 °F 16% 30.17 in 90.0 mi NNE 3.5 mph - N/A   Clear
1:58 PM 79.7 °F - 23.4 °F 12% 30.13 in 90.0 mi North 6.9 mph - N/A   Clear
2:58 PM 81.9 °F - 22.8 °F 11% 30.11 in 90.0 mi NE 11.5 mph - N/A   Partly Cloudy
3:58 PM 83.1 °F - 23.9 °F 11% 30.09 in 90.0 mi East 9.2 mph - N/A   Partly Cloudy
4:58 PM 82.9 °F - 22.5 °F 11% 30.08 in 90.0 mi NNE 3.5 mph - N/A   Partly Cloudy
5:58 PM 82.0 °F - 23.2 °F 11% 30.07 in 90.0 mi ENE 6.9 mph - N/A   Partly Cloudy
6:58 PM 79.0 °F - 22.6 °F 12% 30.08 in 90.0 mi NE 6.9 mph - N/A   Scattered Clouds
7:58 PM 71.1 °F - 23.2 °F 17% 30.09 in 30.0 mi East 6.9 mph - N/A   Scattered Clouds
8:58 PM 62.6 °F - 25.7 °F 25% 30.11 in 30.0 mi SE 4.6 mph - N/A   Scattered Clouds
9:58 PM 61.5 °F - 25.7 °F 26% 30.12 in 30.0 mi ESE 1.2 mph - N/A   Partly Cloudy
10:58 PM 56.5 °F - 23.7 °F 28% 30.15 in 10.0 mi West 4.6 mph - N/A   Clear
11:58 PM 56.1 °F - 23.9 °F 29% 30.14 in 10.0 mi WSW 3.5 mph - N/A   Clear